Tracking 32139 objects as of 15-Nov-2025
HD Live streaming from Space Station
objects crossing your sky now

PALAPA 2

Track PALAPA 2 now!
PALAPA 2 is classified as:


NORAD ID: 9862
Int'l Code: 1977-018A
Perigee: 35,848.8 km
Apogee: 35,860.1 km
Inclination: 9.1 °
Period: 1,439.2 minutes
Semi major axis: 42225 km
RCS: 5.6864 m2 (large)
Launch date: March 10, 1977
Source: Indonesia (INDO)
Launch site: AIR FORCE EASTERN TEST RANGE (AFETR)
Your satellite tracking list
Your tracking list is empty




NASA's NSSDC Master Catalog

Two Line Element Set (TLE):
1  9862U 77018A   25319.20310042  .00000017  00000-0  00000+0 0  9997
2  9862   9.0852 311.7163 0001341 164.7551 194.6450  1.00055505140961
Source of the keplerian elements: AFSPC